Location: Unspecified
(47.1121°N, 116.3927°W)
Time: 20:08:57
(UTC-07:00)

ISS - Visible Passes

Search period start: 23 September 2017 00:00
Search period end: 03 October 2017 00:00
Orbit: 401 x 407 km, 51.6° (Epoch: 24 September)

Date Brightness Start Highest point End Pass type
(mag) Time Alt. Az. Time Alt. Az. Time Alt. Az.
25 Sep -2.5 20:00:40 10° SSW 20:03:00 25° SSE 20:03:00 25° SSE visible
26 Sep -1.9 19:09:18 10° S 19:11:18 15° SE 19:13:18 10° E visible
26 Sep -2.3 20:44:04 10° WSW 20:45:58 32° WSW 20:45:58 32° WSW visible
27 Sep -3.6 19:51:51 10° SW 19:55:02 51° SSE 19:56:05 34° E visible
27 Sep -0.5 21:28:24 10° W 21:28:46 12° W 21:28:46 12° W visible
28 Sep -2.8 18:59:52 10° SSW 19:02:47 30° SE 19:05:43 10° E visible
28 Sep -3.1 20:35:53 10° W 20:38:42 52° NW 20:38:42 52° NW visible
29 Sep -3.9 19:43:26 10° WSW 19:46:43 85° NNW 19:48:33 24° ENE visible
29 Sep -0.7 21:20:23 10° WNW 21:21:12 16° WNW 21:21:12 16° WNW visible
30 Sep -2.8 20:27:48 10° W 20:30:56 41° NNW 20:30:56 41° NNW visible
01 Oct -3.2 19:35:14 10° W 19:38:27 52° NNW 19:40:36 19° NE visible
01 Oct -0.8 21:12:15 10° WNW 21:13:15 17° WNW 21:13:15 17° WNW visible
02 Oct -2.7 20:19:42 10° WNW 20:22:46 35° N 20:22:51 35° N visible
